Location: Tierra del Sol
(32.6128°N, 116.3319°W)
Time: 03:26:25
(UTC-07:00)

Hubble Space Telescope - Pass Details

Date: 09 October 2017
Orbit: 537 x 541 km, 28.5° (Epoch: 20 October)

Event Time Altitude Azimuth Distance (km) Brightness Sun altitude
Exits shadow 05:28:27 27° 225° (SW) 1,049 1.8 -17.0°
Maximum altitude 05:29:36 32° 194° (SSW) 936 1.8 -16.7°
Drops below altitude 10° 05:33:18 10° 130° (SE) 1,787 4.1 -15.9°
Sets 05:35:44 0° 120° (ESE) 2,677 5.3 -15.4°
